Location: Ahstedt
(52.2048°N, 10.1060°E)
Time: 23:38:31
(UTC+00:00)

CENTAUR R/B - Pass Details

Date: 18 January 2026
Orbit: 629 x 1552 km, 63.4° (Epoch: 18 February)

Event Time Altitude Azimuth Distance (km) Brightness Sun altitude
Rises 05:21:04 0° 198° (SSW) 3,221 5.2 -17.4°
Reaches altitude 10° 05:23:19 10° 192° (SSW) 2,398 4.6 -17.1°
Maximum altitude 05:28:35 45° 120° (ESE) 1,262 3.6 -16.3°
Drops below altitude 10° 05:35:10 10° 51° (NE) 3,004 5.6 -15.3°
Sets 05:38:18 0° 46° (NE) 4,121 6.2 -14.8°
